Location: Warszawa
(52.2500°N, 21.0000°E)
Time: 15:39:46
(UTC+02:00)

ITUPSAT 1 - Pass Details

Date: 30 April 2024
Orbit: 694 x 707 km, 98.5° (Epoch: 20 May)

Event Time Altitude Azimuth Distance (km) Brightness Sun altitude
Rises 22:09:46 0° 20° (NNE) 3,088 ? -15.8°
Reaches altitude 10° 22:12:11 10° 29° (NNE) 2,164 ? -16.0°
Maximum altitude 22:16:34 37° 97° (E) 1,083 ? -16.4°
Enters shadow 22:18:06 29° 136° (SE) 1,262 ? -16.6°
